| time (UTC) | temp C | wind direction | speed KPH | gust KPH | rain 1hr cm | rain 24hr cm | rain mn cm | humidity % | barometer mb |
| 20260505100053 | 7 | 221 | 8.0 | 24.1 | 0.00 | 0.00 | 0.00 | 87 | 1012.6 |
| 20260505094550 | 7 | 167 | 11.3 | 22.5 | 0.00 | 0.00 | 0.00 | 87 | 1012.3 |
| 20260505093054 | 7 | 182 | 11.3 | 25.7 | 0.00 | 0.00 | 0.00 | 86 | 1012.0 |
| 20260505091548 | 7 | 181 | 9.7 | 27.4 | 0.00 | 0.00 | 0.00 | 86 | 1012.1 |
| 20260505090052 | 7 | 229 | 12.9 | 30.6 | 0.00 | 0.00 | 0.00 | 86 | 1012.0 |
| 20260505084550 | 7 | 196 | 11.3 | 27.4 | 0.00 | 0.00 | 0.00 | 86 | 1011.9 |
| 20260505083051 | 7 | 188 | 11.3 | 25.7 | 0.00 | 0.00 | 0.00 | 86 | 1011.9 |
| 20260505081548 | 7 | 188 | 11.3 | 30.6 | 0.00 | 0.00 | 0.00 | 86 | 1011.8 |
| 20260505080054 | 7 | 224 | 14.5 | 30.6 | 0.00 | 0.00 | 0.00 | 86 | 1011.8 |
| 20260505074549 | 7 | 173 | 9.7 | 30.6 | 0.00 | 0.00 | 0.00 | 85 | 1011.8 |
| 20260505073104 | 7 | 213 | 12.9 | 29.0 | 0.00 | 0.00 | 0.00 | 85 | 1011.7 |
| 20260505071553 | 7 | 152 | 12.9 | 37.0 | 0.00 | 0.00 | 0.00 | 85 | 1011.6 |
| 20260505070054 | 7 | 310 | 14.5 | 30.6 | 0.00 | 0.00 | 0.00 | 85 | 1011.1 |
| 20260505064748 | 7 | 182 | 12.9 | 32.2 | 0.00 | 0.00 | 0.00 | 84 | 1011.1 |
| 20260505063053 | 7 | 219 | 14.5 | 32.2 | 0.00 | 0.00 | 0.00 | 84 | 1010.9 |
| 20260505061557 | 7 | 195 | 17.7 | 35.4 | 0.00 | 0.00 | 0.00 | 83 | 1010.6 |
| 20260505060051 | 7 | 180 | 12.9 | 32.2 | 0.00 | 0.00 | 0.00 | 82 | 1010.5 |
| 20260505054611 | 7 | 170 | 11.3 | 38.6 | 0.00 | 0.00 | 0.00 | 82 | 1010.6 |
| 20260505053108 | 7 | 196 | 12.9 | 32.2 | 0.00 | 0.00 | 0.00 | 82 | 1010.9 |
| 20260505051553 | 7 | 195 | 14.5 | 29.0 | 0.00 | 0.00 | 0.00 | 82 | 1011.0 |
| 20260505050104 | 7 | 201 | 12.9 | 29.0 | 0.00 | 0.00 | 0.00 | 82 | 1011.1 |
| 20260505041556 | 7 | 216 | 12.9 | 27.4 | 0.00 | 0.05 | 0.00 | 82 | 1011.6 |
| 20260505040056 | 7 | 244 | 11.3 | 27.4 | 0.00 | 0.05 | 0.00 | 82 | 1011.5 |
| 20260505034552 | 7 | 234 | 12.9 | 25.7 | 0.00 | 0.33 | 0.00 | 82 | 1011.3 |
| 20260505033050 | 7 | 211 | 8.0 | 25.7 | 0.00 | 0.33 | 0.00 | 82 | 1011.1 |
| 20260505031605 | 7 | 232 | 8.0 | 20.9 | 0.00 | 0.33 | 0.00 | 82 | 1011.1 |
| 20260505030049 | 7 | 156 | 9.7 | 22.5 | 0.00 | 0.33 | 0.00 | 81 | 1010.8 |
| 20260505024554 | 7 | 138 | 9.7 | 24.1 | 0.00 | 0.74 | 0.33 | 81 | 1010.7 |
| 20260505023106 | 7 | 223 | 8.0 | 29.0 | 0.00 | 0.74 | 0.33 | 80 | 1010.7 |
| 20260505021554 | 7 | 305 | 8.0 | 24.1 | 0.00 | 0.74 | 0.33 | 80 | 1010.7 |
| 20260505020050 | 7 | 223 | 9.7 | 22.5 | 0.00 | 0.74 | 0.33 | 79 | 1010.8 |
| 20260505014601 | 7 | 193 | 8.0 | 22.5 | 0.00 | 1.30 | 0.33 | 79 | 1010.5 |
| 20260505013108 | 7 | 256 | 8.0 | 20.9 | 0.00 | 1.30 | 0.33 | 79 | 1010.3 |
| 20260505011547 | 7 | 238 | 8.0 | 25.7 | 0.00 | 1.30 | 0.33 | 79 | 1009.9 |
| 20260505010049 | 7 | 223 | 8.0 | 25.7 | 0.00 | 1.30 | 0.33 | 80 | 1009.9 |
| 20260505004555 | 7 | 236 | 12.9 | 22.5 | 0.00 | 1.96 | 0.33 | 81 | 1009.7 |
| 20260505003047 | 7 | 247 | 12.9 | 29.0 | 0.00 | 1.96 | 0.33 | 80 | 1009.6 |
| 20260505001554 | 7 | 263 | 11.3 | 27.4 | 0.00 | 1.96 | 0.33 | 80 | 1009.4 |
| 20260505000106 | 8 | 229 | 11.3 | 33.8 | 0.00 | 1.96 | 0.33 | 79 | 1009.1 |
| 20260504234552 | 8 | 238 | 12.9 | 38.6 | 0.00 | 2.34 | 0.33 | 78 | 1008.7 |
| 20260504233055 | 8 | 182 | 14.5 | 35.4 | 0.00 | 2.34 | 0.33 | 78 | 1008.2 |
| 20260504231550 | 8 | 215 | 20.9 | 48.3 | 0.00 | 2.34 | 0.33 | 78 | 1007.8 |
| 20260504230104 | 8 | 196 | 17.7 | 37.0 | 0.00 | 2.34 | 0.33 | 78 | 1007.8 |
| 20260504224552 | 9 | 176 | 17.7 | 43.5 | 0.00 | 2.36 | 0.33 | 77 | 1007.6 |
| 20260504223049 | 9 | 191 | 16.1 | 32.2 | 0.00 | 2.36 | 0.33 | 77 | 1007.4 |
| 20260504221557 | 9 | 227 | 19.3 | 38.6 | 0.00 | 2.36 | 0.33 | 77 | 1007.6 |
| 20260504220055 | 10 | 224 | 16.1 | 41.8 | 0.00 | 2.36 | 0.33 | 76 | 1007.3 |
| 20260504214548 | 10 | 229 | 14.5 | 37.0 | 0.00 | 2.36 | 0.33 | 75 | 1007.5 |
| 20260504213046 | 10 | 197 | 14.5 | 33.8 | 0.00 | 2.36 | 0.33 | 77 | 1007.5 |
| 20260504211550 | 10 | 180 | 17.7 | 37.0 | 0.00 | 2.36 | 0.33 | 77 | 1007.5 |
| 20260504210051 | 10 | 164 | 16.1 | 35.4 | 0.00 | 2.36 | 0.33 | 77 | 1007.7 |
| 20260504204549 | 10 | 205 | 16.1 | 43.5 | 0.00 | 2.44 | 0.33 | 77 | 1007.7 |
| 20260504203101 | 9 | 196 | 16.1 | 35.4 | 0.00 | 2.44 | 0.33 | 78 | 1007.9 |
| 20260504201554 | 10 | 154 | 14.5 | 35.4 | 0.00 | 2.44 | 0.33 | 78 | 1008.0 |
| 20260504200053 | 10 | 156 | 9.7 | 25.7 | 0.00 | 2.44 | 0.33 | 76 | 1008.1 |
| 20260504194552 | 10 | 219 | 12.9 | 38.6 | 0.00 | 2.74 | 0.33 | 75 | 1007.8 |
| 20260504193049 | 11 | 212 | 19.3 | 35.4 | 0.00 | 2.74 | 0.33 | 73 | 1007.6 |
| 20260504191600 | 11 | 209 | 12.9 | 35.4 | 0.00 | 2.74 | 0.33 | 72 | 1007.5 |
| 20260504190046 | 11 | 218 | 19.3 | 32.2 | 0.00 | 2.74 | 0.33 | 73 | 1007.4 |
| 20260504184550 | 11 | 213 | 17.7 | 37.0 | 0.00 | 3.05 | 0.33 | 72 | 1007.4 |
| 20260504183047 | 11 | 207 | 16.1 | 33.8 | 0.00 | 3.05 | 0.33 | 73 | 1007.4 |
| 20260504181555 | 11 | 201 | 14.5 | 38.6 | 0.00 | 3.05 | 0.33 | 71 | 1007.5 |
| 20260504180050 | 11 | 235 | 14.5 | 35.4 | 0.00 | 3.05 | 0.33 | 71 | 1007.5 |
| 20260504174550 | 11 | 214 | 11.3 | 29.0 | 0.00 | 3.28 | 0.33 | 71 | 1007.5 |
| 20260504173055 | 11 | 229 | 11.3 | 29.0 | 0.00 | 3.28 | 0.33 | 71 | 1007.4 |
| 20260504171551 | 12 | 172 | 11.3 | 30.6 | 0.00 | 3.28 | 0.33 | 68 | 1007.6 |